This demonstration page uses our WeatherBlox Daily Observations layout. Learn more.

39.08367, -84.50855

Hourly Observations for October 15, 2019

Temp ( °F °C ) Dew Point ( °F °C ) Humidity (%) Winds ( mph kmh ) Pressure ( in mb ) Visibility ( mi km ) Precip ( " mm )
12:53 am 00:53 Clear 41 5 40 4.4 96 96 NE 3 6 30.13 1020 10 16.0934 0 0
1:53 am 01:53 Clear 39 3.9 38 3.3 96 96 Calm 30.13 1020 10 16.0934 0 0
2:53 am 02:53 Clear 38 3.3 38 3.3 100 100 ENE 3 6 30.13 1020 10 16.0934 0 0
3:37 am 03:37 Clear with Mist and Fog 38 3.3 37 2.8 97 97 ENE 3 6 30.14 1021 2 3.21868 0 0
3:45 am 03:45 Clear 38 3.3 37 2.8 97 97 Calm 30.14 1021 7 11.26538 0 0
3:53 am 03:53 Clear 38 3.3 37 2.8 97 97 Calm 30.12 1020 9 14.48406 0 0
4:16 am 04:16 Mostly Clear with Mist and Fog 38 3.3 37 2.8 97 97 Calm 30.14 1021 2 3.21868 0 0
4:21 am 04:21 Mostly Cloudy with Mist and Fog 38 3.3 38 3.3 100 100 Calm 30.14 1021 1 1.60934 0 0
4:33 am 04:33 Mostly Cloudy with Mist and Fog 39 3.9 38 3.3 96 96 Calm 30.14 1021 3 4.82802 0 0
4:39 am 04:39 Cloudy with Mist and Fog 39 3.9 38 3.3 96 96 NE 3 6 30.14 1021 1.5 2.41401 0 0
4:49 am 04:49 Mostly Cloudy with Fog 39 4 39 4 100 100 NE 3 6 30.14 1021 0.25 0.402335 0 0
4:50 am 04:50 Mostly Cloudy with Fog 39 3.9 39 3.9 100 100 Calm 30.11 1020 0.25 0.402335 0 0
5:53 am 05:53 Mostly Cloudy with Fog 39 3.9 39 3.9 100 100 Calm 30.12 1020 0.25 0.402335 0 0
6:43 am 06:43 Mostly Cloudy with Fog 38 3.3 37 2.8 97 97 Calm 30.14 1021 0.5 0.80467 0 0
6:53 am 06:53 Mostly Cloudy with Fog 38 3.3 38 3.3 100 100 NE 3 6 30.12 1020 0.5 0.80467 0 0
7:17 am 07:17 Mostly Cloudy with Mist and Fog 37 2.8 37 2.8 100 100 ENE 3 6 30.14 1021 1.5 2.41401 0 0
7:32 am 07:32 Mostly Cloudy with Mist and Fog 37 2.8 37 2.8 100 100 ENE 3 6 30.13 1020 3 4.82802 0 0
7:39 am 07:39 Mostly Cloudy with Mist and Fog 37 2.8 37 2.8 100 100 Calm 30.13 1020 1 1.60934 0 0
7:53 am 07:53 Mostly Cloudy with Mist and Fog 37 2.8 37 2.8 100 100 Calm 30.12 1020 1 1.60934 0 0
8:29 am 08:29 Sunny with Patchy Fog 38 3.3 38 3.3 100 100 Calm 30.12 1020 10 16.0934 0 0
8:53 am 08:53 Sunny 41 5 39 4 93 93 undefined N/A 30.12 1020 10 16.0934 0 0
9:53 am 09:53 Sunny 46 8 45 7 93 93 undefined N/A 30.11 1020 10 16.0934 0 0
10:53 am 10:53 Sunny 54 12 46 8 77 77 Calm 30.08 1019 10 16.0934 0 0
11:53 am 11:53 Sunny 64 18 45 7 49 49 S 7 11 30.03 1017 10 16.0934 0 0
12:53 pm 12:53 Sunny 70 21.1 46 7.8 42 42 S 8 13 29.99 1016 10 16.0934 0 0
1:53 pm 13:53 Sunny 73 22.8 46 7.8 38 38 SSE 10 17 29.95 1014 10 16.0934 0 0
2:53 pm 14:53 Partly Cloudy 75 23.9 47 8.3 37 37 S 14 22 29.91 1013 10 16.0934 0 0
3:53 pm 15:53 Mostly Sunny 75 23.9 50 10 41 41 S 16 26 29.88 1012 10 16.0934 0 0
4:53 pm 16:53 Mostly Sunny 74 23.3 53 11.7 48 48 SSW 16 26 29.86 1011 10 16.0934 0 0
5:53 pm 17:53 Mostly Sunny 73 22.8 53 11.7 50 50 SSW 10 17 29.85 1011 10 16.0934 0 0
6:53 pm 18:53 Mostly Sunny 71 21.7 54 12.2 55 55 SSW 12 19 29.85 1011 10 16.0934 0 0
7:53 pm 19:53 Mostly Cloudy 63 17.2 54 12.2 73 73 SSW 7 11 29.85 1011 10 16.0934 0 0
8:53 pm 20:53 Mostly Cloudy 68 20 55 12.8 63 63 S 12 19 29.83 1010 10 16.0934 0 0
9:53 pm 21:53 Mostly Cloudy 63 17.2 55 12.8 76 76 SSW 7 11 29.82 1010 10 16.0934 0 0
10:53 pm 22:53 Mostly Cloudy 63 17.2 56 13.3 78 78 SSW 3 6 29.8 1009 10 16.0934 0 0
11:53 pm 23:53 Mostly Cloudy 66 18.9 57 13.9 73 73 SSW 13 20 29.78 1009 10 16.0934 0 0

Powered by AerisWeather